TimeCST,TemperatureF,Dew PointF,Humidity,Sea Level PressureIn,VisibilityMPH,Wind Direction,Wind SpeedMPH,Gust SpeedMPH,PrecipitationIn,Events,Conditions,WindDirDegrees,DateUTC
12:53 AM,53.1,39.0,59,30.02,10.0,South,17.3,26.5,N/A,,Clear,180,2013-11-04 06:53:00
1:53 AM,52.0,39.0,61,30.03,10.0,South,17.3,-,N/A,,Clear,180,2013-11-04 07:53:00
2:53 AM,52.0,39.0,61,30.00,10.0,South,17.3,25.3,N/A,,Clear,170,2013-11-04 08:53:00
3:53 AM,51.1,39.9,66,30.01,10.0,South,15.0,-,N/A,,Clear,180,2013-11-04 09:53:00
4:53 AM,52.0,39.9,63,30.01,10.0,South,19.6,-,N/A,,Clear,170,2013-11-04 10:53:00
5:53 AM,52.0,39.9,63,30.00,10.0,South,17.3,-,N/A,,Mostly Cloudy,170,2013-11-04 11:53:00
6:53 AM,52.0,39.9,63,30.00,10.0,South,17.3,-,N/A,,Scattered Clouds,170,2013-11-04 12:53:00
7:53 AM,52.0,41.0,66,30.02,10.0,South,17.3,-,N/A,,Overcast,170,2013-11-04 13:53:00
8:53 AM,53.1,43.0,69,30.04,10.0,South,18.4,-,N/A,,Overcast,180,2013-11-04 14:53:00
9:53 AM,53.1,43.0,69,30.05,10.0,South,16.1,23.0,0.00,,Overcast,180,2013-11-04 15:53:00
10:53 AM,57.0,44.1,62,30.05,10.0,South,18.4,26.5,N/A,,Overcast,180,2013-11-04 16:53:00
11:53 AM,61.0,46.0,58,30.03,10.0,South,21.9,-,N/A,,Clear,190,2013-11-04 17:53:00
12:53 PM,62.1,46.0,56,30.02,10.0,SSW,19.6,26.5,N/A,,Overcast,200,2013-11-04 18:53:00
1:53 PM,62.1,46.9,58,30.02,10.0,SSW,11.5,20.7,N/A,,Overcast,200,2013-11-04 19:53:00
2:53 PM,62.1,48.0,60,30.03,10.0,South,11.5,-,N/A,,Overcast,190,2013-11-04 20:53:00
3:53 PM,61.0,48.9,64,30.05,10.0,South,6.9,-,N/A,,Overcast,180,2013-11-04 21:53:00
4:53 PM,61.0,48.9,64,30.06,10.0,South,3.5,-,N/A,,Overcast,180,2013-11-04 22:53:00
5:53 PM,59.0,48.9,69,30.08,10.0,South,8.1,-,N/A,,Overcast,180,2013-11-04 23:53:00
6:53 PM,59.0,48.9,69,30.11,10.0,South,6.9,-,N/A,,Overcast,190,2013-11-05 00:53:00
7:53 PM,59.0,48.0,67,30.12,10.0,South,13.8,-,N/A,,Overcast,180,2013-11-05 01:53:00
8:53 PM,57.9,48.0,70,30.14,10.0,South,11.5,-,N/A,,Overcast,180,2013-11-05 02:53:00
9:26 PM,57.9,48.0,70,30.15,10.0,South,10.4,-,N/A,,Overcast,180,2013-11-05 03:26:00
9:53 PM,57.9,48.9,72,30.16,10.0,South,12.7,-,N/A,,Overcast,180,2013-11-05 03:53:00
10:35 PM,57.0,48.9,74,30.15,10.0,South,9.2,-,N/A,,Overcast,180,2013-11-05 04:35:00
10:53 PM,57.0,48.9,74,30.16,10.0,South,9.2,-,N/A,,Overcast,190,2013-11-05 04:53:00
11:05 PM,57.0,48.9,74,30.16,10.0,South,9.2,-,N/A,,Overcast,180,2013-11-05 05:05:00
11:53 PM,55.0,50.0,83,30.16,10.0,South,9.2,-,N/A,,Overcast,180,2013-11-05 05:53:00